Time,TemperatureF,DewpointF,PressureIn,WindDirection,WindDirectionDegrees,WindSpeedMPH,WindSpeedGustMPH,Humidity,HourlyPrecipIn,Conditions,Clouds,dailyrainin,SoftwareType,DateUTC
2013-11-11 00:04:00,47.1,29.0,29.12,NNE,22,0.0,0.0,49,0.00,,---,0.00,VWS V14.01,2013-11-11 06:04:00,
2013-11-11 00:09:00,47.1,29.0,29.12,NNE,22,0.0,0.0,49,0.00,,---,0.00,VWS V14.01,2013-11-11 06:09:00,
2013-11-11 00:14:00,47.3,29.1,29.12,NNE,22,0.0,0.0,49,0.00,,---,0.00,VWS V14.01,2013-11-11 06:14:00,
2013-11-11 00:19:00,47.3,29.1,29.12,NNE,22,0.0,0.0,49,0.00,,---,0.00,VWS V14.01,2013-11-11 06:19:00,
2013-11-11 00:24:00,47.1,29.0,29.12,NNE,22,0.0,0.0,49,0.00,,---,0.00,VWS V14.01,2013-11-11 06:24:00,
2013-11-11 00:29:00,46.9,28.8,29.12,NNE,22,0.0,0.0,49,0.00,,---,0.00,VWS V14.01,2013-11-11 06:29:00,
2013-11-11 00:35:00,46.8,28.6,29.12,NNE,22,0.0,0.0,49,0.00,,---,0.00,VWS V14.01,2013-11-11 06:35:00,
2013-11-11 00:40:00,46.8,28.6,29.12,NNE,22,0.0,0.0,49,0.00,,---,0.00,VWS V14.01,2013-11-11 06:40:00,
2013-11-11 00:45:00,46.6,28.5,29.12,NNE,22,0.0,0.0,49,0.00,,---,0.00,VWS V14.01,2013-11-11 06:45:00,
2013-11-11 00:50:00,46.4,28.8,29.12,NNE,22,0.0,0.0,50,0.00,,---,0.00,VWS V14.01,2013-11-11 06:50:00,
2013-11-11 00:55:00,46.2,28.6,29.12,NNE,22,0.0,0.0,50,0.00,,---,0.00,VWS V14.01,2013-11-11 06:55:00,
2013-11-11 01:00:00,46.0,28.5,29.12,NNE,22,0.0,0.0,50,0.00,,---,0.00,VWS V14.01,2013-11-11 07:00:00,
2013-11-11 01:05:00,45.9,28.3,29.12,NNE,22,0.0,0.0,50,0.00,,---,0.00,VWS V14.01,2013-11-11 07:05:00,
2013-11-11 01:10:00,45.7,28.1,29.12,NNE,22,0.0,0.0,50,0.00,,---,0.00,VWS V14.01,2013-11-11 07:10:00,
2013-11-11 01:15:00,45.5,28.4,29.12,NNE,22,0.0,0.0,51,0.00,,---,0.00,VWS V14.01,2013-11-11 07:15:00,
2013-11-11 01:20:00,45.3,28.3,29.12,NNE,22,0.0,0.0,51,0.00,,---,0.00,VWS V14.01,2013-11-11 07:20:00,
2013-11-11 01:25:00,45.1,28.1,29.12,NNE,22,0.0,0.0,51,0.00,,---,0.00,VWS V14.01,2013-11-11 07:25:00,
2013-11-11 01:30:00,45.0,27.9,29.12,NNE,22,0.0,0.0,51,0.00,,---,0.00,VWS V14.01,2013-11-11 07:30:00,
2013-11-11 01:35:00,44.8,27.8,29.12,NNE,22,0.0,0.0,51,0.00,,---,0.00,VWS V14.01,2013-11-11 07:35:00,
2013-11-11 01:40:00,44.6,28.1,29.12,NNE,22,0.0,0.0,52,0.00,,---,0.00,VWS V14.01,2013-11-11 07:40:00,
2013-11-11 01:45:00,44.6,28.1,29.09,NNE,22,0.0,0.0,52,0.00,,---,0.00,VWS V14.01,2013-11-11 07:45:00,
2013-11-11 01:51:00,44.4,28.4,29.09,NNE,22,0.0,0.0,53,0.00,,---,0.00,VWS V14.01,2013-11-11 07:51:00,
2013-11-11 01:56:00,44.4,28.4,29.09,NNE,22,0.0,0.0,53,0.00,,---,0.00,VWS V14.01,2013-11-11 07:56:00,
2013-11-11 02:01:00,44.4,28.4,29.12,NNE,22,0.0,0.0,53,0.00,,---,0.00,VWS V14.01,2013-11-11 08:01:00,
2013-11-11 02:06:00,44.4,28.8,29.12,NNE,22,0.0,0.0,54,0.00,,---,0.00,VWS V14.01,2013-11-11 08:06:00,
2013-11-11 02:11:00,44.6,29.0,29.12,NNE,22,0.0,0.0,54,0.00,,---,0.00,VWS V14.01,2013-11-11 08:11:00,
2013-11-11 02:16:00,44.6,29.0,29.09,NNE,22,0.0,0.0,54,0.00,,---,0.00,VWS V14.01,2013-11-11 08:16:00,
2013-11-11 02:21:00,44.8,29.2,29.09,NNE,22,0.0,0.0,54,0.00,,---,0.00,VWS V14.01,2013-11-11 08:21:00,
2013-11-11 02:26:00,44.8,29.6,29.09,NNE,22,0.0,0.0,55,0.00,,---,0.00,VWS V14.01,2013-11-11 08:26:00,
2013-11-11 02:31:00,44.8,29.6,29.09,NNE,22,0.0,0.0,55,0.00,,---,0.00,VWS V14.01,2013-11-11 08:31:00,
2013-11-11 02:36:00,44.6,29.5,29.09,NNE,22,0.0,0.0,55,0.00,,---,0.00,VWS V14.01,2013-11-11 08:36:00,
2013-11-11 02:41:00,44.6,29.5,29.09,NNE,22,0.0,0.0,55,0.00,,---,0.00,VWS V14.01,2013-11-11 08:41:00,
2013-11-11 02:46:00,44.4,29.3,29.09,NNE,22,0.0,0.0,55,0.00,,---,0.00,VWS V14.01,2013-11-11 08:46:00,
2013-11-11 02:51:00,44.2,29.5,29.09,NNE,22,0.0,0.0,56,0.00,,---,0.00,VWS V14.01,2013-11-11 08:51:00,
2013-11-11 02:57:00,44.1,29.4,29.09,NNE,22,0.0,0.0,56,0.00,,---,0.00,VWS V14.01,2013-11-11 08:57:00,
2013-11-11 03:02:00,43.9,29.2,29.09,NNE,22,0.0,0.0,56,0.00,,---,0.00,VWS V14.01,2013-11-11 09:02:00,
2013-11-11 03:07:00,43.7,29.0,29.09,NNE,22,0.0,0.0,56,0.00,,---,0.00,VWS V14.01,2013-11-11 09:07:00,
2013-11-11 03:12:00,43.7,29.5,29.09,NNE,22,0.0,0.0,57,0.00,,---,0.00,VWS V14.01,2013-11-11 09:12:00,
2013-11-11 03:17:00,43.5,29.3,29.09,NNE,22,0.0,0.0,57,0.00,,---,0.00,VWS V14.01,2013-11-11 09:17:00,
2013-11-11 03:22:00,43.5,29.3,29.09,NNE,22,0.0,0.0,57,0.00,,---,0.00,VWS V14.01,2013-11-11 09:22:00,
2013-11-11 03:27:00,43.3,29.1,29.09,NNE,22,0.0,0.0,57,0.00,,---,0.00,VWS V14.01,2013-11-11 09:27:00,
2013-11-11 03:32:00,43.3,29.6,29.09,NNE,22,0.0,0.0,58,0.00,,---,0.00,VWS V14.01,2013-11-11 09:32:00,
2013-11-11 03:37:00,43.2,29.4,29.09,NNE,22,0.0,0.0,58,0.00,,---,0.00,VWS V14.01,2013-11-11 09:37:00,
2013-11-11 03:42:00,43.2,29.4,29.09,NNE,22,0.0,0.0,58,0.00,,---,0.00,VWS V14.01,2013-11-11 09:42:00,
2013-11-11 03:47:00,43.2,29.8,29.09,NNE,22,0.0,0.0,59,0.00,,---,0.00,VWS V14.01,2013-11-11 09:47:00,
2013-11-11 03:52:00,43.3,30.0,29.09,NNE,22,0.0,0.0,59,0.00,,---,0.00,VWS V14.01,2013-11-11 09:52:00,
2013-11-11 03:57:00,43.3,30.4,29.09,NNE,22,0.0,0.0,60,0.00,,---,0.00,VWS V14.01,2013-11-11 09:57:00,
2013-11-11 04:02:00,43.3,30.4,29.09,NNE,22,0.0,0.0,60,0.00,,---,0.00,VWS V14.01,2013-11-11 10:02:00,
2013-11-11 04:07:00,43.3,30.4,29.09,NNE,22,0.0,0.0,60,0.00,,---,0.00,VWS V14.01,2013-11-11 10:07:00,
2013-11-11 04:12:00,43.3,30.4,29.09,NNE,22,0.0,0.0,60,0.00,,---,0.00,VWS V14.01,2013-11-11 10:12:00,
2013-11-11 04:17:00,43.3,30.8,29.09,NNE,22,0.0,0.0,61,0.00,,---,0.00,VWS V14.01,2013-11-11 10:17:00,
2013-11-11 04:22:00,43.3,30.8,29.09,NNE,22,0.0,0.0,61,0.00,,---,0.00,VWS V14.01,2013-11-11 10:22:00,
2013-11-11 04:27:00,43.0,30.5,29.09,NNE,22,0.0,0.0,61,0.00,,---,0.00,VWS V14.01,2013-11-11 10:27:00,
2013-11-11 04:32:00,43.0,30.5,29.06,NNE,22,0.0,0.0,61,0.00,,---,0.00,VWS V14.01,2013-11-11 10:32:00,
2013-11-11 04:37:00,43.0,30.9,29.06,NNE,22,0.0,0.0,62,0.00,,---,0.00,VWS V14.01,2013-11-11 10:37:00,
2013-11-11 04:42:00,43.0,30.9,29.06,NNE,22,0.0,0.0,62,0.00,,---,0.00,VWS V14.01,2013-11-11 10:42:00,
2013-11-11 04:47:00,43.0,31.3,29.09,NNE,22,0.0,0.0,63,0.00,,---,0.00,VWS V14.01,2013-11-11 10:47:00,
2013-11-11 04:52:00,43.0,31.3,29.09,NNE,22,0.0,0.0,63,0.00,,---,0.00,VWS V14.01,2013-11-11 10:52:00,
2013-11-11 04:57:00,43.2,31.4,29.09,NNE,22,0.0,0.0,63,0.00,,---,0.00,VWS V14.01,2013-11-11 10:57:00,
2013-11-11 05:02:00,43.3,32.0,29.09,NNE,22,0.0,0.0,64,0.00,,---,0.00,VWS V14.01,2013-11-11 11:02:00,
2013-11-11 05:07:00,43.5,32.2,29.09,NNE,22,0.0,0.0,64,0.00,,---,0.00,VWS V14.01,2013-11-11 11:07:00,
2013-11-11 05:12:00,43.5,32.2,29.09,NNE,22,0.0,0.0,64,0.00,,---,0.00,VWS V14.01,2013-11-11 11:12:00,
2013-11-11 05:18:00,43.7,32.3,29.09,NNE,22,0.0,0.0,64,0.00,,---,0.00,VWS V14.01,2013-11-11 11:18:00,
2013-11-11 05:23:00,43.9,32.9,29.09,NNE,22,0.0,0.0,65,0.00,,---,0.00,VWS V14.01,2013-11-11 11:23:00,
2013-11-11 05:28:00,43.9,32.9,29.09,NNE,22,0.0,0.0,65,0.00,,---,0.00,VWS V14.01,2013-11-11 11:28:00,
2013-11-11 05:33:00,43.9,32.9,29.09,NNE,22,0.0,0.0,65,0.00,,---,0.00,VWS V14.01,2013-11-11 11:33:00,
2013-11-11 05:38:00,43.9,32.9,29.09,NNE,22,0.0,0.0,65,0.00,,---,0.00,VWS V14.01,2013-11-11 11:38:00,
2013-11-11 05:43:00,43.9,33.3,29.09,NNE,22,0.0,0.0,66,0.00,,---,0.00,VWS V14.01,2013-11-11 11:43:00,
2013-11-11 05:48:00,43.9,33.3,29.09,NNE,22,0.0,0.0,66,0.00,,---,0.00,VWS V14.01,2013-11-11 11:48:00,
2013-11-11 05:53:00,44.1,33.8,29.09,NNE,22,0.0,0.0,67,0.00,,---,0.00,VWS V14.01,2013-11-11 11:53:00,
2013-11-11 05:58:00,44.6,34.7,29.09,NNE,22,0.0,0.0,68,0.00,,---,0.00,VWS V14.01,2013-11-11 11:58:00,
2013-11-11 06:03:00,44.6,34.3,29.12,NNE,22,0.0,0.0,67,0.00,,---,0.00,VWS V14.01,2013-11-11 12:03:00,
2013-11-11 06:08:00,44.6,33.6,29.12,NNE,22,0.0,0.0,65,0.00,,---,0.00,VWS V14.01,2013-11-11 12:08:00,
2013-11-11 06:13:00,44.6,33.2,29.12,NNE,22,0.0,0.0,64,0.00,,---,0.00,VWS V14.01,2013-11-11 12:13:00,
2013-11-11 06:18:00,44.6,33.2,29.12,NNE,22,0.0,0.0,64,0.00,,---,0.00,VWS V14.01,2013-11-11 12:18:00,
2013-11-11 06:23:00,44.6,32.8,29.12,NNE,22,0.0,0.0,63,0.00,,---,0.00,VWS V14.01,2013-11-11 12:23:00,
2013-11-11 06:28:00,44.4,32.2,29.12,NNE,22,0.0,0.0,62,0.00,,---,0.00,VWS V14.01,2013-11-11 12:28:00,
2013-11-11 06:33:00,44.4,32.2,29.12,NNE,22,0.0,0.0,62,0.00,,---,0.00,VWS V14.01,2013-11-11 12:33:00,
2013-11-11 06:38:00,44.1,31.1,29.12,NNE,22,0.0,0.0,60,0.00,,---,0.00,VWS V14.01,2013-11-11 12:38:00,
2013-11-11 06:43:00,43.7,29.9,29.12,NNE,22,0.0,0.0,58,0.00,,---,0.00,VWS V14.01,2013-11-11 12:43:00,
2013-11-11 06:48:00,43.0,28.8,29.12,NNE,22,0.0,0.0,57,0.00,,---,0.00,VWS V14.01,2013-11-11 12:48:00,
2013-11-11 06:53:00,42.8,28.6,29.12,NNE,22,0.0,0.0,57,0.00,,---,0.00,VWS V14.01,2013-11-11 12:53:00,
2013-11-11 06:58:00,42.4,28.7,29.12,NNE,22,0.0,0.0,58,0.00,,---,0.00,VWS V14.01,2013-11-11 12:58:00,
2013-11-11 07:03:00,42.3,28.5,29.14,NNE,22,0.0,0.0,58,0.00,,---,0.00,VWS V14.01,2013-11-11 13:03:00,
2013-11-11 07:08:00,42.1,28.4,29.14,NNE,22,0.0,0.0,58,0.00,,---,0.00,VWS V14.01,2013-11-11 13:08:00,
2013-11-11 07:14:00,41.9,28.6,29.14,NNE,22,0.0,0.0,59,0.00,,---,0.00,VWS V14.01,2013-11-11 13:14:00,
2013-11-11 07:19:00,41.7,28.5,29.14,NNE,22,0.0,0.0,59,0.00,,---,0.00,VWS V14.01,2013-11-11 13:19:00,
2013-11-11 07:24:00,41.7,28.5,29.14,NNE,22,0.0,0.0,59,0.00,,---,0.00,VWS V14.01,2013-11-11 13:24:00,
2013-11-11 07:29:00,41.7,28.5,29.14,NNE,22,0.0,0.0,59,0.00,,---,0.00,VWS V14.01,2013-11-11 13:29:00,
2013-11-11 07:34:00,41.5,28.7,29.14,NNE,22,0.0,0.0,60,0.00,,---,0.00,VWS V14.01,2013-11-11 13:34:00,
2013-11-11 07:39:00,41.5,28.7,29.14,NNE,22,0.0,0.0,60,0.00,,---,0.00,VWS V14.01,2013-11-11 13:39:00,
2013-11-11 07:44:00,41.5,28.7,29.17,NNE,22,0.0,0.0,60,0.00,,---,0.00,VWS V14.01,2013-11-11 13:44:00,
2013-11-11 07:49:00,41.4,28.1,29.17,NNE,22,0.0,0.0,59,0.00,,---,0.00,VWS V14.01,2013-11-11 13:49:00,
2013-11-11 07:54:00,41.4,28.1,29.17,NNE,22,0.0,0.0,59,0.00,,---,0.00,VWS V14.01,2013-11-11 13:54:00,
2013-11-11 07:59:00,41.2,28.4,29.17,NNE,22,0.0,0.0,60,0.00,,---,0.00,VWS V14.01,2013-11-11 13:59:00,
2013-11-11 08:04:00,41.2,28.0,29.17,NNE,22,0.0,0.0,59,0.00,,---,0.00,VWS V14.01,2013-11-11 14:04:00,
2013-11-11 08:09:00,41.0,27.8,29.17,NNE,22,0.0,0.0,59,0.00,,---,0.00,VWS V14.01,2013-11-11 14:09:00,
2013-11-11 08:14:00,41.0,27.8,29.20,NNE,22,0.0,0.0,59,0.00,,---,0.00,VWS V14.01,2013-11-11 14:14:00,
2013-11-11 08:19:00,40.6,27.5,29.20,NNE,22,0.0,0.0,59,0.00,,---,0.00,VWS V14.01,2013-11-11 14:19:00,
2013-11-11 08:24:00,40.5,27.7,29.20,NNE,22,0.0,0.0,60,0.00,,---,0.00,VWS V14.01,2013-11-11 14:24:00,
2013-11-11 08:29:00,40.3,27.5,29.20,NNE,22,0.0,0.0,60,0.00,,---,0.00,VWS V14.01,2013-11-11 14:29:00,
2013-11-11 08:34:00,39.9,27.6,29.20,NNE,22,0.0,0.0,61,0.00,,---,0.00,VWS V14.01,2013-11-11 14:34:00,
2013-11-11 08:39:00,39.7,27.4,29.20,NNE,22,0.0,0.0,61,0.00,,---,0.00,VWS V14.01,2013-11-11 14:39:00,
2013-11-11 08:44:00,39.7,27.8,29.23,NNE,22,0.0,0.0,62,0.00,,---,0.00,VWS V14.01,2013-11-11 14:44:00,
2013-11-11 08:49:00,39.4,27.9,29.23,NNE,22,0.0,0.0,63,0.00,,---,0.00,VWS V14.01,2013-11-11 14:49:00,
2013-11-11 08:54:00,39.4,27.9,29.23,NNE,22,0.0,0.0,63,0.00,,---,0.00,VWS V14.01,2013-11-11 14:54:00,
2013-11-11 09:00:00,39.4,27.9,29.23,NNE,22,0.0,0.0,63,0.00,,---,0.00,VWS V14.01,2013-11-11 15:00:00,
2013-11-11 09:05:00,39.4,27.9,29.23,NNE,22,0.0,0.0,63,0.00,,---,0.00,VWS V14.01,2013-11-11 15:05:00,
2013-11-11 09:10:00,39.4,27.9,29.23,NNE,22,0.0,0.0,63,0.00,,---,0.00,VWS V14.01,2013-11-11 15:10:00,
2013-11-11 09:15:00,39.4,28.2,29.23,NNE,22,0.0,0.0,64,0.00,,---,0.00,VWS V14.01,2013-11-11 15:15:00,
2013-11-11 09:20:00,39.4,28.2,29.23,NNE,22,0.0,0.0,64,0.00,,---,0.00,VWS V14.01,2013-11-11 15:20:00,
2013-11-11 09:25:00,39.4,28.6,29.23,NNE,22,0.0,0.0,65,0.00,,---,0.00,VWS V14.01,2013-11-11 15:25:00,
2013-11-11 09:30:00,39.6,28.4,29.23,NNE,22,0.0,0.0,64,0.00,,---,0.00,VWS V14.01,2013-11-11 15:30:00,
2013-11-11 09:35:00,39.6,28.4,29.23,NNE,22,0.0,0.0,64,0.00,,---,0.00,VWS V14.01,2013-11-11 15:35:00,
2013-11-11 09:40:00,39.6,28.4,29.23,NNE,22,0.0,0.0,64,0.00,,---,0.00,VWS V14.01,2013-11-11 15:40:00,
2013-11-11 09:45:00,39.4,28.2,29.26,NNE,22,0.0,0.0,64,0.00,,---,0.00,VWS V14.01,2013-11-11 15:45:00,
2013-11-11 09:50:00,39.4,28.6,29.26,NNE,22,0.0,0.0,65,0.00,,---,0.00,VWS V14.01,2013-11-11 15:50:00,
2013-11-11 09:55:00,39.2,28.4,29.26,NNE,22,0.0,0.0,65,0.00,,---,0.00,VWS V14.01,2013-11-11 15:55:00,
2013-11-11 10:00:00,39.0,28.6,29.26,NNE,22,0.0,0.0,66,0.00,,---,0.00,VWS V14.01,2013-11-11 16:00:00,
2013-11-11 10:05:00,38.8,28.5,29.26,NNE,22,0.0,0.0,66,0.00,,---,0.00,VWS V14.01,2013-11-11 16:05:00,
2013-11-11 10:10:00,38.3,27.6,29.26,NNE,22,0.0,0.0,65,0.00,,---,0.00,VWS V14.01,2013-11-11 16:10:00,
2013-11-11 10:15:00,37.9,27.6,29.26,NNE,22,0.0,0.0,66,0.00,,---,0.00,VWS V14.01,2013-11-11 16:15:00,
2013-11-11 10:20:00,37.6,26.9,29.26,NNE,22,0.0,0.0,65,0.00,,---,0.00,VWS V14.01,2013-11-11 16:20:00,
2013-11-11 10:25:00,37.6,26.9,29.26,NNE,22,0.0,0.0,65,0.00,,---,0.00,VWS V14.01,2013-11-11 16:25:00,
2013-11-11 10:30:00,37.4,26.7,29.29,NNE,22,0.0,0.0,65,0.00,,---,0.00,VWS V14.01,2013-11-11 16:30:00,
2013-11-11 10:35:00,37.2,26.9,29.29,NNE,22,0.0,0.0,66,0.00,,---,0.00,VWS V14.01,2013-11-11 16:35:00,
2013-11-11 10:40:00,36.9,25.8,29.29,NNE,22,0.0,0.0,64,0.00,,---,0.00,VWS V14.01,2013-11-11 16:40:00,
2013-11-11 10:46:00,36.9,25.8,29.29,NNE,22,0.0,0.0,64,0.00,,---,0.00,VWS V14.01,2013-11-11 16:46:00,
2013-11-11 10:51:00,36.7,25.3,29.29,NNE,22,0.0,0.0,63,0.00,,---,0.00,VWS V14.01,2013-11-11 16:51:00,
2013-11-11 10:56:00,36.5,25.1,29.29,NNE,22,0.0,0.0,63,0.00,,---,0.00,VWS V14.01,2013-11-11 16:56:00,
2013-11-11 11:01:00,36.3,24.6,29.29,NNE,22,0.0,0.0,62,0.00,,---,0.00,VWS V14.01,2013-11-11 17:01:00,
2013-11-11 11:06:00,36.1,23.6,29.29,NNE,22,0.0,0.0,60,0.00,,---,0.00,VWS V14.01,2013-11-11 17:06:00,
2013-11-11 11:11:00,36.0,23.4,29.29,NNE,22,0.0,0.0,60,0.00,,---,0.00,VWS V14.01,2013-11-11 17:11:00,
2013-11-11 11:16:00,35.6,21.5,29.29,NNE,22,0.0,0.0,56,0.00,,---,0.00,VWS V14.01,2013-11-11 17:16:00,
2013-11-11 11:21:00,35.2,21.1,29.29,NNE,22,0.0,0.0,56,0.00,,---,0.00,VWS V14.01,2013-11-11 17:21:00,
2013-11-11 11:26:00,34.9,20.8,29.29,NNE,22,0.0,0.0,56,0.00,,---,0.00,VWS V14.01,2013-11-11 17:26:00,
2013-11-11 11:31:00,35.1,21.8,29.29,NNE,22,0.0,0.0,58,0.00,,---,0.00,VWS V14.01,2013-11-11 17:31:00,
2013-11-11 11:36:00,35.1,21.4,29.29,NNE,22,0.0,0.0,57,0.00,,---,0.00,VWS V14.01,2013-11-11 17:36:00,
2013-11-11 11:41:00,34.9,21.2,29.29,NNE,22,0.0,0.0,57,0.00,,---,0.00,VWS V14.01,2013-11-11 17:41:00,
2013-11-11 11:46:00,34.9,21.2,29.29,NNE,22,0.0,0.0,57,0.00,,---,0.00,VWS V14.01,2013-11-11 17:46:00,
2013-11-11 11:51:00,34.7,21.5,29.29,NNE,22,0.0,0.0,58,0.00,,---,0.00,VWS V14.01,2013-11-11 17:51:00,
2013-11-11 11:56:00,34.9,21.6,29.29,NNE,22,0.0,0.0,58,0.00,,---,0.00,VWS V14.01,2013-11-11 17:56:00,
2013-11-11 12:01:00,34.9,22.0,29.32,NNE,22,0.0,0.0,59,0.00,,---,0.00,VWS V14.01,2013-11-11 18:01:00,
2013-11-11 12:06:00,34.5,20.9,29.32,NNE,22,0.0,0.0,57,0.00,,---,0.00,VWS V14.01,2013-11-11 18:06:00,
2013-11-11 12:11:00,34.5,21.3,29.32,NNE,22,0.0,0.0,58,0.00,,---,0.00,VWS V14.01,2013-11-11 18:11:00,
2013-11-11 12:16:00,34.7,21.5,29.32,NNE,22,0.0,0.0,58,0.00,,---,0.00,VWS V14.01,2013-11-11 18:16:00,
2013-11-11 12:21:00,34.2,20.1,29.32,NNE,22,0.0,0.0,56,0.00,,---,0.00,VWS V14.01,2013-11-11 18:21:00,
2013-11-11 12:26:00,34.0,20.4,29.32,NNE,22,0.0,0.0,57,0.00,,---,0.00,VWS V14.01,2013-11-11 18:26:00,
2013-11-11 12:31:00,33.3,20.5,29.32,NNE,22,0.0,0.0,59,0.00,,---,0.00,VWS V14.01,2013-11-11 18:31:00,
2013-11-11 12:37:00,32.5,20.2,29.32,NNE,22,0.0,0.0,60,0.00,,---,0.00,VWS V14.01,2013-11-11 18:37:00,
2013-11-11 12:42:00,31.6,20.1,29.32,NNE,22,0.0,0.0,62,0.00,,---,0.00,VWS V14.01,2013-11-11 18:42:00,
2013-11-11 12:47:00,31.1,20.0,29.32,NNE,22,0.0,0.0,63,0.00,,---,0.00,VWS V14.01,2013-11-11 18:47:00,
2013-11-11 12:52:00,30.7,20.4,29.32,NNE,22,0.0,0.0,65,0.00,,---,0.00,VWS V14.01,2013-11-11 18:52:00,
2013-11-11 12:57:00,30.4,20.8,29.32,NNE,22,0.0,0.0,67,0.00,,---,0.00,VWS V14.01,2013-11-11 18:57:00,
2013-11-11 13:02:00,30.0,20.0,29.35,NNE,22,0.0,0.0,66,0.00,,---,0.00,VWS V14.01,2013-11-11 19:02:00,
2013-11-11 13:07:00,29.7,19.7,29.35,NNE,22,0.0,0.0,66,0.00,,---,0.00,VWS V14.01,2013-11-11 19:07:00,
2013-11-11 13:12:00,29.7,19.7,29.35,NNE,22,0.0,0.0,66,0.00,,---,0.00,VWS V14.01,2013-11-11 19:12:00,
2013-11-11 13:17:00,29.5,19.9,29.35,NNE,22,0.0,0.0,67,0.00,,---,0.00,VWS V14.01,2013-11-11 19:17:00,
2013-11-11 13:22:00,29.5,19.5,29.35,NNE,22,0.0,0.0,66,0.00,,---,0.00,VWS V14.01,2013-11-11 19:22:00,
2013-11-11 13:27:00,28.9,18.3,29.35,NNE,22,0.0,0.0,64,0.00,,---,0.00,VWS V14.01,2013-11-11 19:27:00,
2013-11-11 13:32:00,28.6,18.0,29.35,NNE,22,0.0,0.0,64,0.00,,---,0.00,VWS V14.01,2013-11-11 19:32:00,
2013-11-11 13:37:00,28.6,18.0,29.35,NNE,22,0.0,0.0,64,0.00,,---,0.00,VWS V14.01,2013-11-11 19:37:00,
2013-11-11 13:42:00,28.6,18.0,29.35,NNE,22,0.0,0.0,64,0.00,,---,0.00,VWS V14.01,2013-11-11 19:42:00,
2013-11-11 13:47:00,28.6,18.0,29.35,NNE,22,0.0,0.0,64,0.00,,---,0.00,VWS V14.01,2013-11-11 19:47:00,
2013-11-11 13:52:00,28.4,18.5,29.35,NNE,22,0.0,0.0,66,0.00,,---,0.00,VWS V14.01,2013-11-11 19:52:00,
2013-11-11 13:57:00,28.2,19.4,29.35,NNE,22,0.0,0.0,69,0.00,,---,0.00,VWS V14.01,2013-11-11 19:57:00,
2013-11-11 14:02:00,28.0,19.5,29.35,NNE,22,0.0,0.0,70,0.00,,---,0.00,VWS V14.01,2013-11-11 20:02:00,
2013-11-11 14:07:00,27.9,20.0,29.35,NNE,22,0.0,0.0,72,0.00,,---,0.00,VWS V14.01,2013-11-11 20:07:00,
2013-11-11 14:12:00,27.7,20.2,29.35,NNE,22,0.0,0.0,73,0.00,,---,0.00,VWS V14.01,2013-11-11 20:12:00,
2013-11-11 14:18:00,27.5,20.3,29.38,NNE,22,0.0,0.0,74,0.00,,---,0.00,VWS V14.01,2013-11-11 20:18:00,
2013-11-11 14:23:00,27.3,20.5,29.38,NNE,22,0.0,0.0,75,0.00,,---,0.00,VWS V14.01,2013-11-11 20:23:00,
2013-11-11 14:28:00,27.0,20.4,29.38,NNE,22,0.0,0.0,76,0.00,,---,0.00,VWS V14.01,2013-11-11 20:28:00,
2013-11-11 14:33:00,27.0,20.4,29.38,NNE,22,0.0,0.0,76,0.00,,---,0.00,VWS V14.01,2013-11-11 20:33:00,
2013-11-11 14:38:00,27.0,20.4,29.38,NNE,22,0.0,0.0,76,0.00,,---,0.00,VWS V14.01,2013-11-11 20:38:00,
2013-11-11 14:43:00,26.8,20.2,29.38,NNE,22,0.0,0.0,76,0.00,,---,0.00,VWS V14.01,2013-11-11 20:43:00,
2013-11-11 14:48:00,26.8,20.5,29.38,NNE,22,0.0,0.0,77,0.00,,---,0.00,VWS V14.01,2013-11-11 20:48:00,
2013-11-11 14:53:00,26.8,20.5,29.38,NNE,22,0.0,0.0,77,0.00,,---,0.00,VWS V14.01,2013-11-11 20:53:00,
2013-11-11 14:58:00,27.0,20.7,29.38,NNE,22,0.0,0.0,77,0.00,,---,0.00,VWS V14.01,2013-11-11 20:58:00,
2013-11-11 15:03:00,27.0,20.7,29.38,NNE,22,0.0,0.0,77,0.00,,---,0.00,VWS V14.01,2013-11-11 21:03:00,
2013-11-11 15:08:00,27.0,20.4,29.38,NNE,22,0.0,0.0,76,0.00,,---,0.00,VWS V14.01,2013-11-11 21:08:00,
2013-11-11 15:13:00,27.1,20.3,29.38,NNE,22,0.0,0.0,75,0.00,,---,0.00,VWS V14.01,2013-11-11 21:13:00,
2013-11-11 15:18:00,27.5,20.6,29.38,NNE,22,0.0,0.0,75,0.00,,---,0.00,VWS V14.01,2013-11-11 21:18:00,
2013-11-11 15:23:00,27.5,20.3,29.38,NNE,22,0.0,0.0,74,0.00,,---,0.00,VWS V14.01,2013-11-11 21:23:00,
2013-11-11 15:28:00,27.7,20.2,29.38,NNE,22,0.0,0.0,73,0.00,,---,0.00,VWS V14.01,2013-11-11 21:28:00,
2013-11-11 15:33:00,27.7,19.9,29.41,NNE,22,0.0,0.0,72,0.00,,---,0.00,VWS V14.01,2013-11-11 21:33:00,
2013-11-11 15:38:00,27.5,19.4,29.41,NNE,22,0.0,0.0,71,0.00,,---,0.00,VWS V14.01,2013-11-11 21:38:00,
2013-11-11 15:43:00,27.5,18.7,29.41,NNE,22,0.0,0.0,69,0.00,,---,0.00,VWS V14.01,2013-11-11 21:43:00,
2013-11-11 15:48:00,27.5,18.7,29.41,NNE,22,0.0,0.0,69,0.00,,---,0.00,VWS V14.01,2013-11-11 21:48:00,
2013-11-11 15:53:00,27.5,18.7,29.41,NNE,22,0.0,0.0,69,0.00,,---,0.00,VWS V14.01,2013-11-11 21:53:00,
2013-11-11 15:59:00,27.5,18.3,29.41,NNE,22,0.0,0.0,68,0.00,,---,0.00,VWS V14.01,2013-11-11 21:59:00,
2013-11-11 16:04:00,27.3,18.2,29.41,NNE,22,0.0,0.0,68,0.00,,---,0.00,VWS V14.01,2013-11-11 22:04:00,
2013-11-11 16:09:00,27.3,17.8,29.41,NNE,22,0.0,0.0,67,0.00,,---,0.00,VWS V14.01,2013-11-11 22:09:00,
2013-11-11 16:14:00,27.1,17.6,29.41,NNE,22,0.0,0.0,67,0.00,,---,0.00,VWS V14.01,2013-11-11 22:14:00,
2013-11-11 16:19:00,27.1,17.3,29.41,NNE,22,0.0,0.0,66,0.00,,---,0.00,VWS V14.01,2013-11-11 22:19:00,
2013-11-11 16:24:00,27.0,16.4,29.41,NNE,22,0.0,0.0,64,0.00,,---,0.00,VWS V14.01,2013-11-11 22:24:00,
2013-11-11 16:29:00,27.0,15.7,29.44,NNE,22,0.0,0.0,62,0.00,,---,0.00,VWS V14.01,2013-11-11 22:29:00,
2013-11-11 16:34:00,27.0,16.1,29.44,NNE,22,0.0,0.0,63,0.00,,---,0.00,VWS V14.01,2013-11-11 22:34:00,
2013-11-11 16:39:00,27.0,16.4,29.44,NNE,22,0.0,0.0,64,0.00,,---,0.00,VWS V14.01,2013-11-11 22:39:00,
2013-11-11 16:44:00,26.8,16.2,29.44,NNE,22,0.0,0.0,64,0.00,,---,0.00,VWS V14.01,2013-11-11 22:44:00,
2013-11-11 16:49:00,26.6,16.1,29.44,NNE,22,0.0,0.0,64,0.00,,---,0.00,VWS V14.01,2013-11-11 22:49:00,
2013-11-11 16:54:00,26.4,16.3,29.44,NNE,22,0.0,0.0,65,0.00,,---,0.00,VWS V14.01,2013-11-11 22:54:00,
2013-11-11 16:59:00,26.4,17.0,29.44,NNE,22,0.0,0.0,67,0.00,,---,0.00,VWS V14.01,2013-11-11 22:59:00,
2013-11-11 17:05:00,26.4,17.0,29.44,NNE,22,0.0,0.0,67,0.00,,---,0.00,VWS V14.01,2013-11-11 23:05:00,
2013-11-11 17:10:00,26.4,17.3,29.44,NNE,22,0.0,0.0,68,0.00,,---,0.00,VWS V14.01,2013-11-11 23:10:00,
2013-11-11 17:15:00,26.4,17.0,29.47,NNE,22,0.0,0.0,67,0.00,,---,0.00,VWS V14.01,2013-11-11 23:15:00,
2013-11-11 17:20:00,26.2,16.4,29.47,NNE,22,0.0,0.0,66,0.00,,---,0.00,VWS V14.01,2013-11-11 23:20:00,
2013-11-11 17:25:00,26.1,15.9,29.47,NNE,22,0.0,0.0,65,0.00,,---,0.00,VWS V14.01,2013-11-11 23:25:00,
2013-11-11 17:30:00,26.1,15.6,29.47,NNE,22,0.0,0.0,64,0.00,,---,0.00,VWS V14.01,2013-11-11 23:30:00,
2013-11-11 17:35:00,25.9,15.0,29.47,NNE,22,0.0,0.0,63,0.00,,---,0.00,VWS V14.01,2013-11-11 23:35:00,
2013-11-11 17:40:00,25.9,15.4,29.47,NNE,22,0.0,0.0,64,0.00,,---,0.00,VWS V14.01,2013-11-11 23:40:00,
2013-11-11 17:45:00,25.7,14.1,29.47,NNE,22,0.0,0.0,61,0.00,,---,0.00,VWS V14.01,2013-11-11 23:45:00,
2013-11-11 17:50:00,25.5,14.0,29.47,NNE,22,0.0,0.0,61,0.00,,---,0.00,VWS V14.01,2013-11-11 23:50:00,
2013-11-11 17:55:00,25.3,13.8,29.47,NNE,22,0.0,0.0,61,0.00,,---,0.00,VWS V14.01,2013-11-11 23:55:00,
2013-11-11 18:00:00,25.2,13.2,29.50,NNE,22,0.0,0.0,60,0.00,,---,0.00,VWS V14.01,2013-11-12 00:00:00,
2013-11-11 18:05:00,25.0,12.7,29.50,NNE,22,0.0,0.0,59,0.00,,---,0.00,VWS V14.01,2013-11-12 00:05:00,
2013-11-11 18:10:00,24.8,12.5,29.50,NNE,22,0.0,0.0,59,0.00,,---,0.00,VWS V14.01,2013-11-12 00:10:00,
2013-11-11 18:15:00,24.8,12.9,29.53,NNE,22,0.0,0.0,60,0.00,,---,0.00,VWS V14.01,2013-11-12 00:15:00,
2013-11-11 18:20:00,24.8,13.3,29.53,NNE,22,0.0,0.0,61,0.00,,---,0.00,VWS V14.01,2013-11-12 00:20:00,
2013-11-11 18:25:00,24.8,12.9,29.53,NNE,22,0.0,0.0,60,0.00,,---,0.00,VWS V14.01,2013-11-12 00:25:00,
2013-11-11 18:30:00,24.6,12.7,29.50,NNE,22,0.0,0.0,60,0.00,,---,0.00,VWS V14.01,2013-11-12 00:30:00,
2013-11-11 18:35:00,24.6,12.7,29.50,NNE,22,0.0,0.0,60,0.00,,---,0.00,VWS V14.01,2013-11-12 00:35:00,
2013-11-11 18:40:00,24.4,12.6,29.50,NNE,22,0.0,0.0,60,0.00,,---,0.00,VWS V14.01,2013-11-12 00:40:00,
2013-11-11 18:46:00,24.4,12.6,29.53,NNE,22,0.0,0.0,60,0.00,,---,0.00,VWS V14.01,2013-11-12 00:46:00,
2013-11-11 18:51:00,24.4,12.6,29.53,NNE,22,0.0,0.0,60,0.00,,---,0.00,VWS V14.01,2013-11-12 00:51:00,
2013-11-11 18:56:00,24.4,12.2,29.53,NNE,22,0.0,0.0,59,0.00,,---,0.00,VWS V14.01,2013-11-12 00:56:00,
2013-11-11 19:01:00,24.4,12.6,29.53,NNE,22,0.0,0.0,60,0.00,,---,0.00,VWS V14.01,2013-11-12 01:01:00,
2013-11-11 19:06:00,24.3,12.0,29.53,NNE,22,0.0,0.0,59,0.00,,---,0.00,VWS V14.01,2013-11-12 01:06:00,
2013-11-11 19:11:00,24.3,12.0,29.53,NNE,22,0.0,0.0,59,0.00,,---,0.00,VWS V14.01,2013-11-12 01:11:00,
2013-11-11 19:16:00,24.3,12.4,29.53,NNE,22,0.0,0.0,60,0.00,,---,0.00,VWS V14.01,2013-11-12 01:16:00,
2013-11-11 19:21:00,24.3,12.4,29.53,NNE,22,0.0,0.0,60,0.00,,---,0.00,VWS V14.01,2013-11-12 01:21:00,
2013-11-11 19:26:00,24.3,12.0,29.53,NNE,22,0.0,0.0,59,0.00,,---,0.00,VWS V14.01,2013-11-12 01:26:00,
2013-11-11 19:31:00,24.1,11.8,29.53,NNE,22,0.0,0.0,59,0.00,,---,0.00,VWS V14.01,2013-11-12 01:31:00,
2013-11-11 19:37:00,24.1,12.2,29.53,NNE,22,0.0,0.0,60,0.00,,---,0.00,VWS V14.01,2013-11-12 01:37:00,
2013-11-11 19:42:00,24.1,12.2,29.53,NNE,22,0.0,0.0,60,0.00,,---,0.00,VWS V14.01,2013-11-12 01:42:00,
2013-11-11 19:47:00,24.1,12.6,29.56,NNE,22,0.0,0.0,61,0.00,,---,0.00,VWS V14.01,2013-11-12 01:47:00,
2013-11-11 19:52:00,23.9,12.4,29.56,NNE,22,0.0,0.0,61,0.00,,---,0.00,VWS V14.01,2013-11-12 01:52:00,
2013-11-11 19:57:00,23.9,12.4,29.56,NNE,22,0.0,0.0,61,0.00,,---,0.00,VWS V14.01,2013-11-12 01:57:00,
2013-11-11 20:02:00,23.7,12.2,29.56,NNE,22,0.0,0.0,61,0.00,,---,0.00,VWS V14.01,2013-11-12 02:02:00,
2013-11-11 20:07:00,23.5,11.7,29.56,NNE,22,0.0,0.0,60,0.00,,---,0.00,VWS V14.01,2013-11-12 02:07:00,
2013-11-11 20:12:00,23.5,11.7,29.56,NNE,22,0.0,0.0,60,0.00,,---,0.00,VWS V14.01,2013-11-12 02:12:00,
2013-11-11 20:17:00,23.2,11.4,29.56,NNE,22,0.0,0.0,60,0.00,,---,0.00,VWS V14.01,2013-11-12 02:17:00,
2013-11-11 20:22:00,23.2,11.0,29.56,NNE,22,0.0,0.0,59,0.00,,---,0.00,VWS V14.01,2013-11-12 02:22:00,
2013-11-11 20:27:00,23.0,10.8,29.56,NNE,22,0.0,0.0,59,0.00,,---,0.00,VWS V14.01,2013-11-12 02:27:00,
2013-11-11 20:32:00,23.0,10.8,29.56,NNE,22,0.0,0.0,59,0.00,,---,0.00,VWS V14.01,2013-11-12 02:32:00,
2013-11-11 20:37:00,22.8,10.6,29.56,NNE,22,0.0,0.0,59,0.00,,---,0.00,VWS V14.01,2013-11-12 02:37:00,
2013-11-11 20:42:00,22.8,10.6,29.56,NNE,22,0.0,0.0,59,0.00,,---,0.00,VWS V14.01,2013-11-12 02:42:00,
2013-11-11 20:47:00,22.6,10.1,29.59,NNE,22,0.0,0.0,58,0.00,,---,0.00,VWS V14.01,2013-11-12 02:47:00,
2013-11-11 20:52:00,22.5,9.9,29.59,NNE,22,0.0,0.0,58,0.00,,---,0.00,VWS V14.01,2013-11-12 02:52:00,
2013-11-11 20:58:00,22.3,9.8,29.59,NNE,22,0.0,0.0,58,0.00,,---,0.00,VWS V14.01,2013-11-12 02:58:00,
2013-11-11 21:03:00,22.3,10.1,29.59,NNE,22,0.0,0.0,59,0.00,,---,0.00,VWS V14.01,2013-11-12 03:03:00,
2013-11-11 21:08:00,22.1,9.2,29.59,NNE,22,0.0,0.0,57,0.00,,---,0.00,VWS V14.01,2013-11-12 03:08:00,
2013-11-11 21:13:00,22.1,9.2,29.59,NNE,22,0.0,0.0,57,0.00,,---,0.00,VWS V14.01,2013-11-12 03:13:00,
2013-11-11 21:18:00,21.9,9.4,29.59,NNE,22,0.0,0.0,58,0.00,,---,0.00,VWS V14.01,2013-11-12 03:18:00,
2013-11-11 21:23:00,21.9,9.4,29.59,NNE,22,0.0,0.0,58,0.00,,---,0.00,VWS V14.01,2013-11-12 03:23:00,
2013-11-11 21:28:00,21.9,9.4,29.59,NNE,22,0.0,0.0,58,0.00,,---,0.00,VWS V14.01,2013-11-12 03:28:00,
2013-11-11 21:33:00,21.7,9.2,29.59,NNE,22,0.0,0.0,58,0.00,,---,0.00,VWS V14.01,2013-11-12 03:33:00,
2013-11-11 21:38:00,21.7,9.2,29.59,NNE,22,0.0,0.0,58,0.00,,---,0.00,VWS V14.01,2013-11-12 03:38:00,
2013-11-11 21:43:00,21.6,9.5,29.59,NNE,22,0.0,0.0,59,0.00,,---,0.00,VWS V14.01,2013-11-12 03:43:00,
2013-11-11 21:48:00,21.6,9.5,29.62,NNE,22,0.0,0.0,59,0.00,,---,0.00,VWS V14.01,2013-11-12 03:48:00,
2013-11-11 21:53:00,21.4,8.9,29.62,NNE,22,0.0,0.0,58,0.00,,---,0.00,VWS V14.01,2013-11-12 03:53:00,
2013-11-11 21:58:00,21.4,8.9,29.62,NNE,22,0.0,0.0,58,0.00,,---,0.00,VWS V14.01,2013-11-12 03:58:00,
2013-11-11 22:03:00,21.2,9.1,29.62,NNE,22,0.0,0.0,59,0.00,,---,0.00,VWS V14.01,2013-11-12 04:03:00,
2013-11-11 22:08:00,21.2,9.1,29.62,NNE,22,0.0,0.0,59,0.00,,---,0.00,VWS V14.01,2013-11-12 04:08:00,
2013-11-11 22:13:00,21.2,9.1,29.62,NNE,22,0.0,0.0,59,0.00,,---,0.00,VWS V14.01,2013-11-12 04:13:00,
2013-11-11 22:19:00,21.2,8.7,29.62,NNE,22,0.0,0.0,58,0.00,,---,0.00,VWS V14.01,2013-11-12 04:19:00,
2013-11-11 22:24:00,21.0,8.6,29.62,NNE,22,0.0,0.0,58,0.00,,---,0.00,VWS V14.01,2013-11-12 04:24:00,
2013-11-11 22:29:00,20.8,8.4,29.62,NNE,22,0.0,0.0,58,0.00,,---,0.00,VWS V14.01,2013-11-12 04:29:00,
2013-11-11 22:34:00,20.8,8.4,29.62,NNE,22,0.0,0.0,58,0.00,,---,0.00,VWS V14.01,2013-11-12 04:34:00,
2013-11-11 22:39:00,20.8,8.8,29.62,NNE,22,0.0,0.0,59,0.00,,---,0.00,VWS V14.01,2013-11-12 04:39:00,
2013-11-11 22:44:00,20.8,8.4,29.62,NNE,22,0.0,0.0,58,0.00,,---,0.00,VWS V14.01,2013-11-12 04:44:00,
2013-11-11 22:49:00,20.7,8.2,29.62,NNE,22,0.0,0.0,58,0.00,,---,0.00,VWS V14.01,2013-11-12 04:49:00,
2013-11-11 22:54:00,20.7,8.2,29.62,NNE,22,0.0,0.0,58,0.00,,---,0.00,VWS V14.01,2013-11-12 04:54:00,
2013-11-11 22:59:00,20.7,8.2,29.62,NNE,22,0.0,0.0,58,0.00,,---,0.00,VWS V14.01,2013-11-12 04:59:00,
2013-11-11 23:01:00,20.7,8.2,29.62,NNE,22,0.0,0.0,58,0.00,,---,0.00,VWS V14.01,2013-11-12 05:01:00,
2013-11-11 23:02:00,20.5,8.1,29.62,NNE,22,0.0,0.0,58,0.00,,---,0.00,VWS V14.01,2013-11-12 05:02:00,
2013-11-11 23:05:00,20.5,8.1,29.62,NNE,22,0.0,0.0,58,0.00,,---,0.00,VWS V14.01,2013-11-12 05:05:00,
2013-11-11 23:10:00,20.5,8.1,29.62,NNE,22,0.0,0.0,58,0.00,,---,0.00,VWS V14.01,2013-11-12 05:10:00,
2013-11-11 23:15:00,20.5,8.1,29.65,NNE,22,0.0,0.0,58,0.00,,---,0.00,VWS V14.01,2013-11-12 05:15:00,
2013-11-11 23:20:00,20.3,7.5,29.65,NNE,22,0.0,0.0,57,0.00,,---,0.00,VWS V14.01,2013-11-12 05:20:00,
2013-11-11 23:25:00,20.3,7.9,29.65,NNE,22,0.0,0.0,58,0.00,,---,0.00,VWS V14.01,2013-11-12 05:25:00,
2013-11-11 23:30:00,20.3,7.5,29.65,NNE,22,0.0,0.0,57,0.00,,---,0.00,VWS V14.01,2013-11-12 05:30:00,
2013-11-11 23:35:00,20.3,7.5,29.65,NNE,22,0.0,0.0,57,0.00,,---,0.00,VWS V14.01,2013-11-12 05:35:00,
2013-11-11 23:40:00,20.3,7.9,29.65,NNE,22,0.0,0.0,58,0.00,,---,0.00,VWS V14.01,2013-11-12 05:40:00,
2013-11-11 23:45:00,20.1,7.7,29.65,NNE,22,0.0,0.0,58,0.00,,---,0.00,VWS V14.01,2013-11-12 05:45:00,
2013-11-11 23:50:00,20.1,7.7,29.65,NNE,22,0.0,0.0,58,0.00,,---,0.00,VWS V14.01,2013-11-12 05:50:00,
2013-11-11 23:55:00,19.9,7.6,29.65,NNE,22,0.0,0.0,58,0.00,,---,0.00,VWS V14.01,2013-11-12 05:55:00,